Regional Weather Roundup
Issued by NWS Wakefield, VA

Home | Current Version | Previous Version | Graphics & Text | Print | Product List | Glossary On
Versions: 1 2 3 4 5 6 7 8 9 10 11 12 13 14 15 16 17 18 19 20 21 22 23 24 25 26 27 28 29 30 31 32 33 34 35 36 37 38 39 40 41 42 43 44 45 46 47 48 49 50
000
ASUS41 KAKQ 291410
RWRAKQ

REGIONAL WEATHER ROUNDUP
NATIONAL WEATHER SERVICE WAKEFIELD VA
1000 AM EDT TUE JUL 29 2014

Note: "fair" indicates few or no clouds below 12,000 feet with no
significant weather and/or obstructions to visibility. * = Denotes
station may not report precipitation (e.g., rain,snow,etc.),
thunder or fog.

VAZ042-051-052>054-056-291500-
NORTHERN VIRGINIA

CITY           SKY/WX    TMP DP  RH WIND       PRES   REMARKS
WASH NATIONAL  MOSUNNY   70  50  49 NW9       29.95F
DULLES         MOSUNNY   65  46  50 NW15      29.96S
FORT BELVOIR   SUNNY     68  51  53 NW13      29.96S
QUANTICO       MOSUNNY   69  51  52 N13       29.97S
FREDERICKSBRG* SUNNY     71  52  51 NW8       29.96S
STAFFORD*      SUNNY     69  52  54 NW13      30.00F
WARRENTON      SUNNY     69  59  71 NW7       29.97S
CULPEPER*      SUNNY    N/A N/A N/A NW6       29.97F
MANASSAS*      SUNNY     66  52  59 NW12G17   29.96S
LEESBURG*      SUNNY     64  54  68 NW12G18   29.97S
WINCHESTER     SUNNY     64  48  55 W12       29.98S
$$

VAZ048-049-060>072-079>083-291500-
CENTRAL AND SOUTH CENTRAL VIRGINIA...AND NORTH CENTRAL NORTH CAROLINA

CITY           SKY/WX    TMP DP  RH WIND       PRES   REMARKS
RICHMOND       MOSUNNY   73  52  47 N10       29.96S
CHESTERFIELD*  SUNNY     73  48  40 N9        29.98S
HANOVER        SUNNY     72  53  51 VRB7      29.97F
TAPPAHANNOCK*  SUNNY     70  50  49 NW5       29.96S
CHARLOTTSVILLE SUNNY     68  53  58 VRB3      29.98S
ORANGE*        SUNNY     68  54  60 NW6       29.99S
LOUISA*        SUNNY     70  54  56 NW3       29.97S
FARMVILLE*     PTSUNNY   72  54  53 NE7       29.96S
SOUTH HILL*    MOSUNNY   72  57  60 N6        30.01F
ROANOKE RAPIDS NOT AVBL
RALEIGH        MOSUNNY   72  58  61 NE8       29.96F
$$

VAZ088>098-291500-
SOUTHEAST VIRGINIA

CITY           SKY/WX    TMP DP  RH WIND       PRES   REMARKS
NORFOLK        MOSUNNY   72  61  68 N14       29.91S
VIRGINIA BEACH MOSUNNY   75  63  66 NW17      29.90S
NORFOLK NAVAL  MOSUNNY   75  61  61 N12G20    29.93S
WEST POINT*    SUNNY     73  56  54 W7        29.95F
NEWPORT NEWS   PTSUNNY   76  61  59 N10       29.93S
LANGLEY AFB    PTSUNNY   73  61  66 NW8       29.92S
FORT EUSTIS    MOSUNNY   70  58  67 NW8       29.92R
WILLIAMSBURG*  SUNNY     72  61  68 N9        29.94F
FRANKLIN*      SUNNY     72  57  60 N9        29.94S
WAKEFIELD      MOSUNNY   70  56  61 N8        29.94F
$$

VAZ020-022-025-037-045-291500-
WESTERN AND SOUTHWEST VIRGINIA

CITY           SKY/WX    TMP DP  RH WIND       PRES   REMARKS
STAUNTON*      CLOUDY    63  53  69 CALM      30.03S
HOT SPRINGS VA CLOUDY    54  50  87 W6        30.07S
LYNCHBURG      SUNNY     70  54  56 N3        30.00F
DANVILLE       CLOUDY    72  57  59 N6        29.99S
MARTINSVILLE   PTSUNNY   71  59  65 CALM      30.02F
ROANOKE        PTSUNNY   69  57  65 S6        30.02S
BLACKSBURG     PTSUNNY   66  59  77 CALM      30.05S
DUBLIN*        SUNNY     67  56  66 NW6       30.04F
MARION*        PTSUNNY  N/A N/A N/A W6        30.07F
HILLSVILLE*    MOSUNNY   62  54  73 N6        30.05S
RICHLANDS*     CLOUDY    63  56  78 CALM      30.06S
WISE*          PTSUNNY   63  54  72 W3        30.08R
ABINGDON*      SUNNY     68  55  63 CALM      30.05S
$$

MDZ021>025-VAZ099-100-291500-
SOUTHERN MARYLAND AND THE DELMARVA PENINSULA

CITY           SKY/WX    TMP DP  RH WIND       PRES   REMARKS
PATUXENT RIVER MOSUNNY   70  56  61 NW13      29.92F
BAY BRIDGE APT   N/A     68  55  64 NW8       29.92F
LEONARDTOWN    SUNNY     68  54  60 W8        29.95S
DOVER          SUNNY     71  59  66 NW9       29.89S
GEORGETOWN     SUNNY     71  56  58 VRB6      29.91S
EASTON         PTSUNNY   72  61  68 NW8       29.95S
CAMBRIDGE      MOSUNNY   72  57  60 NW9       29.91S
SALISBURY      SUNNY    N/A N/A N/A MISG        N/A
OCEAN CITY     SUNNY     73  59  61 NW8       29.90R
WALLOPS ISLAND SUNNY     74  59  59 N9        29.91R
ACCOMACK*        N/A     70  59  68 N6        29.91S
$$

NCZ012>017-030>032-291500-
EASTERN NORTH CAROLINA

CITY           SKY/WX    TMP DP  RH WIND       PRES   REMARKS
ELIZABETH CITY CLOUDY    75  64  68 N8        29.91S
AHOSKIE*       SUNNY     71  58  64 N10       29.94S
EDENTON*       MOSUNNY   73  63  72 N8        29.92S
CURRITUCK*     CLOUDY    76  62  59 N7        29.92R
KILL DEVIL HLS MOSUNNY   76  65  69 N8        29.89S
MANTEO         NOT AVBL
CAPE HATTERAS  SUNNY     81  67  62 NE8       29.88S
GOLDSBORO      MOSUNNY   74  64  70 NE8       29.92S
WASHINGTON     SUNNY     73  61  67 N9        29.93S
GREENVILLE     MOSUNNY   73  61  64 NE9       29.95S
NEW BERN       SUNNY     76  63  64 N10       29.92S
WILMINGTON     SUNNY     78  63  59 NE12      29.90S
$$

VAZ048-291500-
ELSEWHERE

CITY           SKY/WX    TMP DP  RH WIND       PRES   REMARKS
HARRISBURG PA  MOSUNNY   66  56  70 W9        29.92S
BALTIMORE      PTSUNNY   67  52  58 W7        29.93S
ANNAPOLIS      CLOUDY    67  53  61 W9        29.93S
ANDREWS AFB    SUNNY     68  51  54 NW10      29.94S
WILMINGTON DE  PTSUNNY   69  56  62 NW8       29.92S
PHILADELPHIA   MOSUNNY   70  54  56 NW9       29.90S
WILDWOOD NJ*   SUNNY     70  55  60 NW7       29.91R
ATLANTIC CITY  SUNNY     71  56  58 NW10      29.88S
HENDERSON NC   CLOUDY    70  56  60 NE7       29.97F
GREENSBORO     MOSUNNY   73  56  54 VRB6      29.98F
ROCKY MOUNT    PTSUNNY   73  60  63 N10       29.94S
FAYETTEVILLE   CLOUDY    77  60  55 VRB7      29.94S
CHARLOTTE      SUNNY     75  55  49 N8        29.99S
$$

VAZ100-291500-
MARINE

STATION/POSITION TIME  TEMP    WIND        PRES    WAVE   SWELL
                       AIR SEA DIR/SP/G            HT/PER HT/PER
                 (UTC) (F)     (DEG/KT/KT) (MB)    (FT/S) (FT/S)
44066 TX TWR #4  1400   69 74  330/  8/ 10 1010.5R   4/ 7   3/ 7
CAPE MAY NJ      1400   69 77  330/  9/ 13 1012.0R
LEWES DE         1400   68 72  340/ 11/ 14 1012.3R
15NM E FENWICK I 1400   69 73              1012.3R   3/ 8
OCEAN-CITY-INLET 1400   69 69   10/  7/  9 1012.1R
WACHAPREAGUE VA  1400   72 77  350/  5/  8 1012.6S
THOMAS POINT MD  1400   66 77  290/ 11/ 13 1013.8F
GOOSES REEF MD   1400   68     310/ 10/ 14 1013.9S
COVE POINT MD    1400   68     330/  8/ 10 1013.1F
SOLOMONS ISLAND  1400      79                N/A
BISHOPS HEAD MD  1400   70 74  310/ 10/ 14 1012.5R
PINEY POINT MD   1400          340/ 16/ 17   N/A
POTOMAC MD       1400   69     330/ 14/ 16 1012.7S
CAMBRIDGE MD     1400   69 79  320/ 11/ 13 1012.7S
LEWISETTA VA     1400   69 77  310/ 12/ 15 1013.3R
RAPPAHANNOCK LGT 1400          330/ 16/ 19 1013.4R
STINGRAY PT      1400   70     340/ 12/ 16 1013.9R
YORK RVR RNG VA  1400   69     350/ 14/ 16 1012.7R
YORKTOWN VA      1400   69 78  320/ 11/ 12 1013.1S
JAMESTOWN VA     1400   68     350/  8/ 12   N/A
DOMINION TERM VA 1400   71     340/  9/ 11 1013.2F
KIPTOPEKE VA     1400      81  360/ 12/ 20   N/A
CHES BAY BRIDGE  1400   71 77  320/ 13/ 16 1012.4R
CAPE HENRY VA    1400   71     330/ 15/ 18 1011.5F
WILLOUBY STN VA  1400          350/ 10/ 10 1012.3S
S CRANEY ISL VA  1400          330/  7/  9 1013.0F
CAPE HENRY BUOY  1400      77                N/A     2/ 8
1ST LANDING BUOY 1400   72     330/ 14/ 17 1012.5S
CAPE CHARLES BUO 1400      75                N/A     2/ 8
OFFSHORE WE BUOY 1400      77                N/A     3/ 8
64NM E OF VA BCH 1400   74 78  360/ 10/ 12 1011.9R   3/ 5   3/ 5
DUCK PIER NC     1400   71 62  340/ 12/ 12 1011.8R
44056 DUCK FRF   1400                        N/A     3/ 4
OREGON INLET NC  1400   76 78   20/  8/ 11 1012.2S
HATTERAS NC      1400   77 80   20/ 11/ 16 1012.1S
DIAMOND SHLS NC  1400          VRB 12/ 14  1011.4R   3/ 8   2/ 8
CAPE LOOKOUT NC  1300   77     360/ 11/ 14 1011.4F
$$



USA.gov is the U.S. government's official web portal to all federal, state and local government web resources and services.